Theta_e
337 336 323 321 309 306 302 306 312 306 304 307 308 305 304 304 303 298 317 331 333 332 342 349 354 354 353 353 351 350 349 347 345 344 343 342 340 338 337 336 335 334 333 333 334 334 336 342 340
327 326 318 318 305 299 301 309 306 306 308 308 308 305 304 305 315 316 320 336 333 335 341 346 355 354 354 353 352 352 351 349 347 346 345 344 342 340 339 338 338 337 337 336 336 336 335 338 342
325 325 316 310 303 299 300 308 310 310 310 308 306 310 309 308 318 316 318 337 335 335 340 345 355 354 355 352 352 352 351 350 348 347 346 345 343 341 341 340 340 340 340 339 338 337 336 335 339
322 321 317 303 300 305 307 311 313 308 308 308 308 308 311 316 318 320 323 337 335 335 340 347 354 355 355 353 353 352 351 350 348 347 344 343 341 343 342 341 341 340 340 340 340 339 338 337 337
322 313 302 300 303 307 311 314 312 308 309 307 307 308 308 318 321 321 320 328 329 334 340 349 353 353 355 352 350 349 348 347 345 345 343 341 341 342 340 339 339 339 339 339 340 340 338 339 339
311 308 298 296 302 308 310 311 313 309 309 306 308 307 308 316 318 317 317 322 332 334 338 342 351 351 348 348 346 346 344 344 343 342 341 340 339 339 338 338 338 338 338 339 339 339 340 341 340
308 304 299 302 304 306 309 313 309 310 310 306 311 306 310 312 316 317 316 322 323 326 327 330 334 340 347 346 346 344 342 340 338 336 335 334 334 335 335 336 337 337 337 338 337 338 339 339 339
311 306 300 302 302 304 309 310 310 310 311 313 314 307 306 313 316 315 315 316 318 321 324 324 326 330 330 333 342 341 341 337 336 335 335 334 334 334 334 334 334 335 335 336 336 337 339 338 338
315 302 300 302 303 306 310 304 311 314 311 312 312 313 316 317 315 312 310 311 310 314 314 317 321 324 325 325 330 340 338 337 337 335 336 333 326 324 326 330 333 333 336 336 336 337 338 337 337
309 301 305 311 309 307 309 306 307 308 308 311 312 316 317 316 314 311 310 310 308 311 312 319 322 323 323 328 324 327 328 328 328 329 326 323 324 321 326 329 333 332 333 335 336 336 336 336 327
309 305 311 311 312 312 311 310 309 307 304 308 309 312 314 313 312 311 310 308 310 313 318 319 322 323 322 323 322 321 321 322 324 325 323 321 322 320 321 322 322 320 326 325 329 330 329 329 325
305 311 313 312 314 312 309 313 309 309 308 312 313 315 314 312 311 310 309 311 311 315 318 321 322 322 323 323 322 320 322 323 322 323 322 321 320 320 320 321 321 320 321 322 324 324 326 325 325
308 311 314 314 313 312 312 310 309 309 312 312 313 313 313 312 311 311 310 312 312 316 319 321 322 323 323 322 321 320 323 323 322 321 323 322 321 320 320 320 320 320 320 320 321 322 324 324 325
309 311 312 313 312 312 309 310 309 311 313 310 312 311 311 311 311 309 312 312 314 316 318 319 321 322 321 321 321 322 323 324 324 323 323 325 323 321 319 319 321 321 320 319 321 322 322 322 322
305 301 305 308 309 308 310 305 306 311 311 309 308 310 310 311 311 311 314 314 313 316 318 318 318 321 321 322 322 323 324 325 323 324 324 325 324 321 321 319 320 322 321 320 320 322 323 323 322
300 298 295 303 306 308 306 300 308 310 309 308 309 309 308 309 312 312 314 314 312 316 317 319 324 322 321 321 321 324 324 324 324 323 324 326 326 323 321 320 320 322 321 319 319 320 320 323 322
296 293 295 299 306 306 304 302 307 310 308 308 308 309 309 309 308 312 316 315 315 316 316 318 319 322 322 321 324 324 325 324 324 324 324 325 326 326 322 321 321 321 319 318 319 319 319 320 320
293 292 296 297 303 304 302 302 306 310 309 307 308 308 309 309 309 314 316 315 314 314 318 318 319 322 321 323 323 323 324 324 324 324 324 325 324 325 324 321 321 321 318 318 318 318 321 320 320
299 296 296 300 305 303 302 303 306 308 306 305 306 307 308 308 313 317 317 316 315 315 317 318 319 320 323 322 322 320 320 321 321 323 325 324 324 325 323 321 321 321 317 317 318 319 320 318 321
297 296 296 301 304 301 302 302 306 308 308 308 308 307 307 309 313 316 315 314 314 314 316 318 319 321 324 322 323 323 321 322 322 322 323 324 325 325 324 321 321 320 318 318 318 318 316 317 319
296 295 297 297 301 302 301 299 303 308 310 309 309 308 310 310 311 314 314 313 313 313 316 318 320 322 324 323 322 321 320 320 320 321 320 322 326 325 324 322 319 320 318 318 318 318 318 317 319
294 301 301 300 297 291 301 290 298 303 304 305 306 305 308 310 312 315 313 312 313 314 316 321 321 323 324 324 321 317 316 316 317 320 319 321 324 325 325 325 323 321 320 317 318 320 319 318 319
297 302 301 301 298 293 297 291 295 300 300 303 304 306 307 310 312 313 314 314 316 314 318 321 321 322 324 322 321 318 317 318 319 319 319 321 321 324 327 325 324 322 320 318 320 320 320 319 321
303 300 299 299 296 289 295 293 296 297 301 302 306 306 309 310 311 314 316 316 315 315 318 320 320 321 323 323 320 319 317 317 317 317 319 320 320 321 323 325 323 322 321 320 320 320 321 320 321
300 294 287 284 287 287 296 294 297 302 304 304 307 308 309 311 313 314 314 314 313 314 317 319 318 318 320 322 321 320 319 318 317 318 320 320 319 322 321 323 323 322 324 322 321 321 321 321 320
295 295 288 282 283 288 296 291 297 304 306 307 310 310 311 312 312 314 315 314 313 314 316 320 317 318 320 322 321 321 320 320 320 320 320 319 320 321 321 323 324 325 325 324 322 321 321 321 320
293 290 296 290 292 288 291 296 303 304 307 309 308 310 310 310 311 313 313 312 310 314 315 317 318 316 320 322 322 321 320 319 318 318 320 319 321 325 322 323 324 325 325 324 322 321 320 320 319
296 298 290 288 284 282 289 292 294 298 304 307 307 307 309 309 311 313 314 311 311 315 314 316 318 318 319 319 322 322 322 323 320 321 319 321 321 323 322 322 323 324 324 323 322 322 323 324 323
292 293 293 294 291 286 284 291 299 299 302 307 308 309 309 309 311 313 312 312 311 313 312 315 316 317 318 319 320 321 322 323 322 323 324 321 321 323 323 323 324 323 323 324 324 323 323 322 321
297 293 294 291 288 291 290 291 302 302 305 309 309 310 310 311 311 312 311 311 311 311 313 314 315 316 317 317 321 320 322 322 322 323 321 322 321 323 323 324 324 323 323 324 324 323 323 321 320
Wind_Speed
5 5 0 3 3 4 4 7 4 7 4 3 2 7 7 2 3 4 2 10 13 15 14 16 20 20 19 17 15 14 13 13 13 13 12 12 12 10 9 8 7 6 6 7 8 8 8 7 7
4 4 3 1 3 1 6 6 2 5 5 5 9 6 4 0 2 7 7 10 17 14 12 15 21 19 17 15 14 13 14 14 14 14 14 14 13 12 12 11 10 8 8 8 9 9 9 8 8
3 2 2 3 3 5 5 5 5 6 8 6 4 3 6 7 2 10 6 12 12 13 13 12 18 16 14 14 14 13 14 14 15 15 14 11 14 14 14 13 12 11 11 11 11 11 11 10 9
3 3 3 2 9 9 5 12 9 6 3 3 4 7 4 5 12 9 12 13 12 9 11 12 17 16 16 16 15 14 14 14 14 14 14 13 14 13 14 15 15 14 14 14 14 12 12 11 11
2 3 2 4 7 8 8 11 8 4 4 5 2 3 2 2 7 11 12 12 12 8 9 13 19 18 18 17 15 14 13 10 7 10 12 13 13 13 13 15 16 16 16 16 15 14 13 13 9
2 2 1 4 7 6 7 7 8 5 3 5 6 8 7 5 12 9 10 10 13 13 10 12 18 18 17 15 14 13 12 12 12 11 10 10 11 12 14 15 16 17 17 17 17 16 16 13 11
5 3 5 6 13 13 4 6 5 7 3 2 10 7 2 5 10 9 10 12 11 12 12 9 9 12 14 13 12 12 13 14 13 12 11 11 11 13 14 16 17 17 17 18 17 16 16 15 13
5 4 5 5 6 18 6 7 6 0 8 2 11 8 5 8 8 8 9 12 10 8 8 7 6 6 5 5 11 13 14 13 12 10 10 10 11 11 11 13 14 16 18 19 20 19 18 17 14
4 2 8 8 6 13 8 4 6 4 3 3 2 9 6 13 10 8 5 3 4 4 6 6 7 7 6 6 6 11 12 12 11 10 10 8 4 6 7 8 12 13 16 17 19 19 17 17 15
6 6 14 13 10 11 14 4 5 3 7 2 3 3 10 16 15 12 8 9 4 5 5 7 8 7 6 4 4 2 3 4 4 5 6 4 5 5 6 9 12 13 12 12 16 18 16 16 4
7 11 23 16 16 15 19 14 5 5 7 5 9 8 9 10 9 11 9 6 8 7 5 7 7 7 7 4 4 2 1 2 3 6 6 6 4 4 3 3 3 3 8 3 5 6 4 6 4
6 13 19 22 21 16 16 18 8 7 10 7 12 16 13 13 13 12 10 10 11 8 8 8 8 7 6 4 2 2 3 3 3 5 6 4 3 4 4 3 4 4 3 4 3 3 4 5 6
11 21 21 21 20 19 17 17 12 7 10 8 11 14 18 16 15 10 9 9 11 11 10 10 8 7 6 4 3 3 3 3 5 4 5 4 4 5 4 4 4 4 3 3 4 4 4 5 5
14 14 19 19 21 17 14 18 5 10 8 9 12 16 17 16 18 7 11 12 11 10 9 9 8 7 6 3 3 4 3 5 4 4 5 6 5 5 5 4 5 4 4 4 4 5 4 4 3
10 12 12 17 17 18 14 17 7 11 7 12 12 14 14 17 12 17 19 17 14 9 10 9 8 7 6 4 4 3 4 4 4 4 6 5 5 7 6 4 4 5 4 5 4 4 4 4 3
6 5 10 9 14 17 7 21 15 12 9 12 11 9 12 15 17 12 15 13 9 10 9 8 7 8 7 3 2 2 3 3 4 4 4 5 5 6 5 4 4 4 4 4 4 4 3 3 4
4 14 18 19 12 14 8 18 12 10 9 12 10 10 12 14 6 7 12 14 11 10 9 8 7 8 5 1 1 3 4 3 3 3 3 5 5 5 5 4 4 4 3 3 4 2 3 3 2
12 8 7 18 17 8 11 13 13 21 17 14 11 9 9 8 10 12 13 11 10 9 9 8 6 7 4 1 2 2 2 3 2 3 3 5 4 5 4 4 4 4 4 4 3 3 2 2 4
11 6 11 18 17 6 10 15 17 11 6 7 10 11 11 6 7 11 12 11 10 8 8 8 8 5 3 2 1 1 2 3 2 2 4 4 5 6 3 3 4 4 5 5 5 3 3 1 3
13 13 20 20 18 5 14 22 20 8 8 10 13 8 6 7 12 12 10 7 8 9 8 8 7 6 3 2 2 2 2 3 3 2 4 4 4 4 3 3 5 5 4 6 5 5 3 1 2
16 18 20 20 14 9 8 11 14 10 8 6 7 8 10 18 17 13 13 10 9 9 8 8 8 6 4 2 0 2 1 1 2 2 3 3 2 3 3 4 4 5 5 5 5 5 6 4 1
18 21 19 20 11 8 8 7 6 7 7 5 7 6 10 14 14 14 12 9 9 8 7 8 7 6 4 4 2 1 2 1 2 2 2 3 2 3 3 4 5 5 4 5 5 5 4 5 5
22 14 15 14 13 3 20 2 10 4 6 9 6 8 6 12 17 16 14 13 7 8 8 7 7 6 4 3 2 0 1 1 1 1 3 4 3 3 2 3 4 5 4 5 6 6 6 3 6
22 6 8 10 6 8 15 6 14 5 8 4 0 7 11 11 10 10 10 9 8 7 7 7 7 4 4 4 3 3 3 4 3 2 3 3 2 2 1 3 4 5 5 6 5 5 7 5 5
13 9 5 4 6 9 8 5 13 8 8 8 9 8 10 12 14 15 13 9 8 9 8 7 8 5 4 6 3 4 4 5 3 2 2 3 2 1 2 2 4 3 4 6 6 6 5 6 5
24 14 7 8 4 4 7 8 13 9 8 10 11 13 12 12 12 14 13 10 11 9 9 8 8 6 6 6 3 3 4 3 1 2 2 2 1 1 0 3 4 5 5 6 6 4 4 5 5
11 19 12 3 2 2 5 6 7 5 6 12 10 12 13 12 13 14 10 10 9 9 9 9 8 5 7 6 4 3 3 4 2 3 2 1 1 1 3 4 5 5 6 7 7 4 5 6 4
21 5 9 0 8 7 5 3 7 5 8 10 11 11 11 9 11 11 11 10 8 9 7 7 8 8 7 6 5 3 3 3 2 3 4 4 3 3 3 4 5 6 6 7 7 6 7 10 5
8 19 8 7 7 9 5 10 8 12 13 15 15 14 16 14 14 13 11 9 9 8 8 7 8 8 6 6 5 4 2 2 3 3 4 3 2 3 3 4 6 5 8 7 8 8 9 10 9
18 10 21 12 8 3 7 10 6 9 17 17 14 14 12 14 14 13 12 10 9 9 7 8 7 7 7 6 6 4 4 4 4 4 5 2 3 4 4 5 6 6 6 6 11 10 8 10 9
Wind_Direction
146 150 176 32 34 68 262 261 265 283 190 230 145 137 151 74 162 216 231 176 151 155 170 175 182 184 185 187 191 194 203 205 203 207 216 222 224 224 222 216 216 226 240 250 256 254 255 263 257
161 140 27 1 100 22 264 246 268 277 244 148 104 116 94 186 120 135 115 182 154 159 166 180 187 185 184 188 194 202 208 213 220 218 220 224 223 233 235 232 229 228 234 242 249 253 254 253 266
160 196 82 162 185 200 217 253 325 268 232 191 105 38 130 168 48 146 160 162 142 163 175 180 179 180 183 191 202 206 215 221 228 229 229 226 227 233 235 244 241 241 239 240 241 249 245 250 253
161 36 323 190 240 257 239 277 228 292 348 279 131 70 51 269 157 170 147 150 151 153 162 169 171 177 184 194 199 207 220 234 233 230 232 229 236 237 238 239 242 246 245 252 244 238 248 244 247
36 71 280 260 260 266 279 256 269 321 284 101 143 174 96 280 141 138 133 147 146 151 158 164 172 180 186 191 190 196 206 215 209 227 234 238 241 244 243 244 245 245 248 245 246 244 235 241 236
15 101 342 263 263 275 298 272 6 304 271 161 88 136 186 155 137 169 132 135 150 153 166 174 177 180 183 185 187 187 191 197 204 212 224 238 243 249 252 252 252 254 250 249 249 241 238 231 219
135 86 234 262 283 300 252 268 281 243 232 238 152 137 251 203 182 155 127 141 158 164 170 175 174 184 182 177 178 185 196 204 208 213 217 227 239 248 255 257 256 254 254 252 250 251 239 233 216
137 121 284 249 277 284 283 331 295 160 246 326 148 168 192 217 178 125 139 161 171 170 173 171 142 153 140 189 192 201 209 210 213 216 218 222 232 240 251 256 258 259 259 255 250 243 242 229 214
119 123 261 246 229 262 295 294 283 273 273 238 228 157 203 142 123 125 153 205 144 146 160 157 140 132 163 206 221 221 227 225 223 226 225 225 219 238 251 251 248 260 253 255 250 241 237 224 211
165 154 239 235 258 269 278 253 252 298 313 359 54 24 123 134 155 162 178 208 163 165 144 137 126 149 175 152 119 188 234 249 218 207 215 221 213 227 245 250 265 269 267 257 250 240 231 214 193
203 212 241 266 259 260 273 284 259 288 311 203 191 167 139 149 170 175 201 190 180 154 148 152 149 166 159 133 130 133 196 227 194 212 209 211 208 224 254 266 280 282 275 265 276 240 202 188 169
267 250 254 259 264 267 264 273 252 244 245 246 184 166 162 174 183 191 193 163 152 158 154 160 170 160 159 133 162 207 190 183 205 227 232 207 214 228 235 249 247 240 241 235 224 207 192 180 181
245 250 253 257 264 267 271 258 238 246 260 207 179 166 179 183 193 201 166 155 155 156 166 171 162 162 157 157 202 218 229 217 223 229 221 211 218 218 209 227 232 232 236 220 208 199 185 187 189
248 242 255 264 266 271 269 269 228 259 259 198 164 190 189 188 196 157 157 164 167 158 162 169 165 164 142 176 208 233 241 248 255 248 240 224 218 213 210 217 234 239 217 210 200 190 180 197 171
254 272 278 268 267 269 288 274 235 244 219 215 191 203 197 205 186 183 173 171 166 162 161 163 147 143 133 172 218 231 249 243 252 250 254 253 225 206 202 210 232 234 220 208 185 180 157 180 175
299 289 265 260 269 266 204 270 271 254 216 224 224 222 209 212 201 177 177 159 160 142 156 149 119 121 142 157 219 235 245 241 254 259 254 265 229 209 201 215 231 236 206 178 167 163 167 190 187
225 255 263 271 253 266 218 269 267 263 218 223 226 236 213 223 187 169 156 155 151 146 143 122 124 128 134 186 285 289 270 239 252 260 262 259 246 224 206 213 239 222 167 157 152 142 148 174 184
224 240 244 254 251 251 269 270 275 273 231 220 228 240 222 208 204 157 149 148 137 137 131 137 125 134 120 104 6 326 269 266 259 261 255 263 244 237 206 207 214 182 142 141 147 148 134 152 179
243 250 252 257 262 249 253 263 259 266 249 232 242 247 234 181 145 147 144 141 125 127 135 138 131 143 116 68 12 316 264 256 271 263 282 272 235 240 227 203 191 169 160 173 171 121 121 152 167
224 247 255 271 272 267 280 273 254 244 228 222 224 249 199 151 143 147 141 132 141 151 148 136 137 143 124 134 220 213 244 249 240 291 297 300 226 216 233 197 179 170 151 176 153 136 124 100 172
223 227 244 251 275 267 273 280 271 274 236 275 255 239 173 166 153 156 157 152 141 148 155 146 150 139 132 183 194 344 349 312 4 313 304 324 276 228 242 189 164 168 159 168 150 155 143 120 352
233 223 237 248 258 257 156 268 291 247 239 232 269 191 166 170 152 150 148 153 156 163 145 141 144 133 161 166 152 151 223 262 251 276 295 327 353 236 178 179 170 177 167 162 158 154 136 123 145
237 221 237 251 245 236 277 208 260 285 280 281 232 178 174 163 150 153 157 157 160 147 151 143 138 136 168 173 168 155 319 294 335 341 350 2 325 301 265 184 170 155 171 159 145 141 133 119 152
236 250 251 261 239 241 249 176 277 224 219 246 118 174 149 145 133 133 148 147 146 144 136 140 136 165 157 137 103 80 86 82 60 358 351 335 341 311 185 164 152 158 150 151 153 140 143 148 128
206 191 245 271 208 222 224 224 251 252 235 202 168 157 146 147 146 152 154 155 148 152 147 144 148 174 145 121 104 104 111 101 89 354 341 349 6 292 20 142 149 165 150 142 135 135 141 145 142
221 198 190 197 198 199 223 213 249 220 257 183 155 147 145 150 156 156 161 158 159 158 154 150 162 173 141 137 142 124 120 113 75 40 317 6 91 47 117 166 162 155 143 134 130 132 133 129 128
204 218 201 159 225 82 216 269 353 117 102 123 140 139 157 156 156 159 157 163 158 158 166 157 167 156 155 160 148 157 127 104 94 56 72 63 16 20 87 113 148 144 143 136 130 115 114 108 111
218 155 176 241 201 224 276 214 223 168 174 152 148 165 160 158 154 155 164 167 161 163 158 164 163 162 175 162 157 176 174 131 117 83 77 59 42 35 82 101 113 123 124 118 113 109 114 117 100
177 217 222 175 176 188 205 248 209 194 178 169 177 172 168 165 163 163 168 169 161 152 151 158 154 153 167 167 167 172 167 89 127 110 100 85 61 68 88 79 97 107 121 114 105 109 118 125 119
209 183 209 219 218 206 168 248 251 212 167 169 172 173 168 165 163 162 165 158 154 159 155 158 156 153 166 157 148 158 130 116 114 117 111 93 64 50 72 82 88 87 92 115 123 119 110 117 122